Time,TemperatureF,DewpointF,PressureIn,WindDirection,WindDirectionDegrees,WindSpeedMPH,WindSpeedGustMPH,Humidity,HourlyPrecipIn,Conditions,Clouds,dailyrainin,SoftwareType,DateUTC
2013-01-25 00:00:00,10.4,1.9,30.30,SE,138,6.0,6.0,68,0.00,,,0.00,Wunderground v.1.15,2013-01-25 06:00:00,
2013-01-25 00:30:00,10.4,3.2,30.27,SE,130,4.0,10.0,72,0.00,,,0.00,Wunderground v.1.15,2013-01-25 06:30:00,
2013-01-25 01:00:00,10.4,4.9,30.24,SSE,152,2.0,2.0,78,0.00,,,0.00,Wunderground v.1.15,2013-01-25 07:00:00,
2013-01-25 01:30:00,10.5,5.5,30.23,SE,127,3.0,3.0,80,0.00,,,0.00,Wunderground v.1.15,2013-01-25 07:30:00,
2013-01-25 02:00:00,10.7,6.0,30.21,ESE,120,3.0,3.0,81,0.00,,,0.00,Wunderground v.1.15,2013-01-25 08:00:00,
2013-01-25 02:30:00,11.1,6.7,30.19,SE,144,2.0,2.0,82,0.00,,,0.00,Wunderground v.1.15,2013-01-25 08:30:00,
2013-01-25 03:00:00,11.4,7.0,30.18,SSE,157,1.0,1.0,82,0.00,,,0.00,Wunderground v.1.15,2013-01-25 09:00:00,
2013-01-25 03:30:00,11.6,7.4,30.16,SSE,163,2.0,2.0,83,0.00,,,0.00,Wunderground v.1.15,2013-01-25 09:30:00,
2013-01-25 04:00:00,11.9,7.2,30.13,SSE,151,2.0,5.0,81,0.00,,,0.00,Wunderground v.1.15,2013-01-25 10:00:00,
2013-01-25 04:30:00,12.1,7.4,30.10,SSE,157,2.0,4.0,81,0.00,,,0.00,Wunderground v.1.15,2013-01-25 10:30:00,
2013-01-25 05:00:00,12.3,7.6,30.08,SE,144,3.0,4.0,81,0.00,,,0.00,Wunderground v.1.15,2013-01-25 11:00:00,
2013-01-25 05:30:00,12.6,7.9,30.06,SSE,161,3.0,3.0,81,0.00,,,0.00,Wunderground v.1.15,2013-01-25 11:30:00,
2013-01-25 06:00:00,13.3,8.6,30.05,SSE,156,2.0,2.0,81,0.00,,,0.00,Wunderground v.1.15,2013-01-25 12:00:00,
2013-01-25 06:30:00,13.8,8.8,30.03,SSW,198,2.0,2.0,80,0.00,,,0.00,Wunderground v.1.15,2013-01-25 12:30:00,
2013-01-25 07:00:00,14.6,9.6,30.01,SSW,205,2.0,2.0,80,0.00,,,0.00,Wunderground v.1.15,2013-01-25 13:00:00,
2013-01-25 07:30:00,15.2,9.9,30.00,South,169,2.0,2.0,79,0.00,,,0.00,Wunderground v.1.15,2013-01-25 13:30:00,
2013-01-25 08:00:00,15.9,10.0,29.99,ESE,121,3.0,3.0,77,0.00,,,0.00,Wunderground v.1.15,2013-01-25 14:00:00,
2013-01-25 08:30:00,16.7,10.1,29.98,WSW,248,3.0,3.0,75,0.00,,,0.00,Wunderground v.1.15,2013-01-25 14:30:00,
2013-01-25 09:00:00,17.3,10.4,29.98,WSW,252,7.0,7.0,74,0.00,,,0.00,Wunderground v.1.15,2013-01-25 15:00:00,
2013-01-25 09:30:00,17.5,10.6,29.97,West,263,8.0,8.0,74,0.00,,,0.00,Wunderground v.1.15,2013-01-25 15:30:00,
2013-01-25 10:00:00,17.7,11.1,29.97,WSW,237,9.0,13.0,75,0.00,,,0.00,Wunderground v.1.15,2013-01-25 16:00:00,
2013-01-25 10:30:00,18.1,11.2,29.97,WSW,249,8.0,8.0,74,0.00,,,0.00,Wunderground v.1.15,2013-01-25 16:30:00,
2013-01-25 11:00:00,19.4,11.8,29.97,WSW,242,7.0,7.0,72,0.00,,,0.00,Wunderground v.1.15,2013-01-25 17:00:00,
2013-01-25 11:30:00,19.9,10.7,29.96,WSW,258,10.0,10.0,67,0.00,,,0.00,Wunderground v.1.15,2013-01-25 17:30:00,
2013-01-25 12:00:00,19.9,12.0,29.96,WNW,292,9.0,12.0,71,0.00,,,0.00,Wunderground v.1.15,2013-01-25 18:00:00,
2013-01-25 12:30:00,18.6,12.6,29.97,West,269,12.0,12.0,77,0.00,,,0.00,Wunderground v.1.15,2013-01-25 18:30:00,
2013-01-25 13:00:00,18.1,9.0,29.97,WNW,283,13.0,21.0,67,0.00,,,0.00,Wunderground v.1.15,2013-01-25 19:00:00,
2013-01-25 13:30:00,18.3,8.8,29.99,WNW,293,15.0,15.0,66,0.00,,,0.00,Wunderground v.1.15,2013-01-25 19:30:00,
2013-01-25 14:00:00,18.6,7.4,30.00,West,261,14.0,14.0,61,0.00,,,0.00,Wunderground v.1.15,2013-01-25 20:00:00,
2013-01-25 14:30:00,18.4,6.4,30.01,WNW,292,13.0,13.0,59,0.00,,,0.00,Wunderground v.1.15,2013-01-25 20:30:00,
2013-01-25 15:00:00,18.3,6.7,30.04,WNW,286,14.0,14.0,60,0.00,,,0.00,Wunderground v.1.15,2013-01-25 21:00:00,
2013-01-25 15:30:00,18.0,5.7,30.06,WNW,300,13.0,13.0,58,0.00,,,0.00,Wunderground v.1.15,2013-01-25 21:30:00,
2013-01-25 16:00:00,17.3,5.0,30.08,WNW,292,13.0,17.0,58,0.00,,,0.00,Wunderground v.1.15,2013-01-25 22:00:00,
2013-01-25 16:30:00,16.4,5.6,30.08,WNW,293,10.0,15.0,62,0.00,,,0.00,Wunderground v.1.15,2013-01-25 22:30:00,
2013-01-25 17:00:00,15.7,5.3,30.10,WNW,299,10.0,10.0,63,0.00,,,0.00,Wunderground v.1.15,2013-01-25 23:00:00,
2013-01-25 17:30:00,15.2,4.1,30.12,NW,312,10.0,10.0,61,0.00,,,0.00,Wunderground v.1.15,2013-01-25 23:30:00,
2013-01-25 18:00:00,14.9,3.9,30.14,WNW,286,7.0,7.0,61,0.00,,,0.00,Wunderground v.1.15,2013-01-26 00:00:00,
2013-01-25 18:30:00,14.3,3.3,30.14,WNW,290,7.0,7.0,61,0.00,,,0.00,Wunderground v.1.15,2013-01-26 00:30:00,
2013-01-25 19:00:00,14.1,3.1,30.16,WNW,290,8.0,10.0,61,0.00,,,0.00,Wunderground v.1.15,2013-01-26 01:00:00,
2013-01-25 19:30:00,13.6,3.0,30.17,West,281,5.0,5.0,62,0.00,,,0.00,Wunderground v.1.15,2013-01-26 01:30:00,
2013-01-25 20:00:00,12.8,3.2,30.18,WNW,284,6.0,8.0,65,0.00,,,0.00,Wunderground v.1.15,2013-01-26 02:00:00,
2013-01-25 20:30:00,12.3,2.4,30.19,WNW,289,5.0,5.0,64,0.00,,,0.00,Wunderground v.1.15,2013-01-26 02:30:00,
2013-01-25 21:00:00,12.1,2.9,30.20,West,277,4.0,4.0,66,0.00,,,0.00,Wunderground v.1.15,2013-01-26 03:00:00,
2013-01-25 21:30:00,11.6,2.1,30.22,WNW,292,5.0,5.0,65,0.00,,,0.00,Wunderground v.1.15,2013-01-26 03:30:00,
2013-01-25 22:00:00,11.1,1.6,30.23,West,262,6.0,6.0,65,0.00,,,0.00,Wunderground v.1.15,2013-01-26 04:00:00,
2013-01-25 22:30:00,10.4,1.0,30.24,West,270,6.0,6.0,65,0.00,,,0.00,Wunderground v.1.15,2013-01-26 04:30:00,
2013-01-25 23:30:00,9.2,0.1,30.28,WSW,254,5.0,5.0,66,0.00,,,0.00,Wunderground v.1.15,2013-01-26 05:30:00,